HST
1 20580U 90037B   24157.94119977  .00007794  00000-0  36782-3 0  9996
2 20580  28.4697  60.4689 0002442 278.1928  81.8387 15.17594950675329
ISS (ZARYA)
1 25544U 98067A   24158.30071759  .00018381  00000-0  31860-3 0  9994
2 25544  51.6406   9.2335 0005798 280.9495  52.7665 15.50926527456853
CXO
1 25867U 99040B   24159.92685133  .00000364  00000-0  00000-0 0  9991
2 25867  40.9579 154.6103 8904954 295.8797 359.6867  0.37806362 14532